TimeCST,TemperatureF,Dew PointF,Humidity,Sea Level PressureIn,VisibilityMPH,Wind Direction,Wind SpeedMPH,Gust SpeedMPH,PrecipitationIn,Events,Conditions,WindDirDegrees,DateUTC
12:38 AM,24.8,21.2,86,29.95,2.5,ENE,9.2,-,N/A,,Overcast,60,2013-02-26 06:38:00
12:56 AM,24.1,21.9,91,29.99,2.5,NNE,5.8,-,N/A,,Overcast,30,2013-02-26 06:56:00
1:19 AM,24.8,21.2,86,29.92,3.0,NNE,4.6,-,N/A,,Overcast,20,2013-02-26 07:19:00
1:27 AM,24.8,21.2,86,29.91,2.5,North,9.2,-,N/A,,Overcast,360,2013-02-26 07:27:00
1:51 AM,24.8,21.2,86,29.90,4.0,North,9.2,-,N/A,,Overcast,10,2013-02-26 07:51:00
1:56 AM,24.1,21.0,88,29.95,4.0,North,9.2,-,N/A,,Overcast,360,2013-02-26 07:56:00
2:02 AM,24.8,21.2,86,29.90,1.8,North,6.9,-,N/A,,Overcast,10,2013-02-26 08:02:00
2:41 AM,24.8,21.2,86,29.90,0.8,NNE,9.2,-,0.00,Snow,Light Snow,20,2013-02-26 08:41:00
2:51 AM,24.8,21.2,86,29.91,1.0,North,6.9,-,0.00,Snow,Light Snow,10,2013-02-26 08:51:00
2:56 AM,24.1,21.9,91,29.97,1.0,NNE,5.8,-,0.00,Snow,Light Snow,20,2013-02-26 08:56:00
3:13 AM,24.8,21.2,86,29.92,2.0,NNE,8.1,-,0.00,,Overcast,20,2013-02-26 09:13:00
3:39 AM,24.8,21.2,86,29.90,1.2,North,8.1,-,0.00,Snow,Light Snow,350,2013-02-26 09:39:00
3:56 AM,25.0,21.9,88,29.94,1.5,North,10.4,-,0.00,,Overcast,350,2013-02-26 09:56:00
4:20 AM,24.8,21.2,86,29.87,0.8,North,11.5,-,0.00,Snow,Light Snow,350,2013-02-26 10:20:00
4:30 AM,24.8,21.2,86,29.86,1.2,North,11.5,-,0.00,Snow,Light Snow,350,2013-02-26 10:30:00
4:56 AM,24.1,21.9,91,29.92,1.5,NNE,10.4,-,0.00,,Overcast,20,2013-02-26 10:56:00
5:56 AM,24.1,23.0,96,29.93,1.5,NE,11.5,-,0.00,Snow,Light Snow,40,2013-02-26 11:56:00
6:07 AM,24.8,21.2,86,29.88,2.0,NNE,9.2,-,0.00,Snow,Light Snow,30,2013-02-26 12:07:00
6:56 AM,23.0,21.0,92,29.94,2.5,NE,9.2,-,0.00,,Overcast,40,2013-02-26 12:56:00
7:11 AM,21.2,21.2,100,29.88,1.8,NNE,9.2,-,0.00,Snow,Light Snow,20,2013-02-26 13:11:00
7:18 AM,21.2,19.4,93,29.88,3.0,NE,9.2,-,0.00,,Overcast,40,2013-02-26 13:18:00
7:27 AM,21.2,19.4,93,29.88,1.5,North,9.2,-,N/A,Snow,Light Snow,10,2013-02-26 13:27:00
7:37 AM,21.2,19.4,93,29.88,0.5,North,10.4,-,0.00,Fog-Snow,Light Snow,360,2013-02-26 13:37:00
7:44 AM,21.2,19.4,93,29.88,0.2,North,10.4,-,0.00,Fog-Snow,Light Snow,350,2013-02-26 13:44:00
7:52 AM,21.2,19.4,93,29.88,0.8,North,10.4,-,0.00,,Overcast,350,2013-02-26 13:52:00
7:56 AM,21.0,19.0,92,29.95,0.8,North,12.7,-,0.00,Snow,Light Snow,10,2013-02-26 13:56:00
8:56 AM,21.0,19.0,92,29.96,0.5,North,10.4,-,0.00,Fog,Light Freezing Fog,360,2013-02-26 14:56:00
9:28 AM,21.2,19.4,93,29.90,1.0,North,8.1,-,0.00,,Overcast,360,2013-02-26 15:28:00
9:56 AM,21.9,19.0,89,29.96,1.5,North,10.4,-,0.00,,Overcast,360,2013-02-26 15:56:00
10:56 AM,21.9,19.9,92,29.97,1.8,North,8.1,-,N/A,,Overcast,350,2013-02-26 16:56:00
11:10 AM,23.0,19.4,86,29.90,2.0,North,11.5,-,N/A,,Overcast,350,2013-02-26 17:10:00
11:56 AM,23.0,19.9,88,29.95,2.5,North,10.4,-,N/A,,Overcast,360,2013-02-26 17:56:00
12:39 PM,23.0,19.4,86,29.87,2.5,North,13.8,-,N/A,,Overcast,10,2013-02-26 18:39:00
12:48 PM,23.0,19.4,86,29.87,3.0,North,13.8,-,N/A,,Overcast,360,2013-02-26 18:48:00
12:56 PM,23.0,19.9,88,29.93,3.0,NNE,11.5,-,N/A,,Overcast,20,2013-02-26 18:56:00
1:56 PM,25.0,21.0,85,29.91,5.0,NNW,10.4,-,N/A,,Overcast,340,2013-02-26 19:56:00
2:56 PM,25.0,19.9,81,29.91,4.0,NNW,15.0,-,N/A,,Haze,340,2013-02-26 20:56:00
3:56 PM,25.0,21.0,85,29.92,4.0,NNW,11.5,-,N/A,,Overcast,330,2013-02-26 21:56:00
4:56 PM,26.1,21.0,81,29.93,4.0,NW,12.7,-,N/A,,Haze,320,2013-02-26 22:56:00
5:56 PM,25.0,21.0,85,29.95,4.0,NNW,13.8,-,N/A,,Overcast,340,2013-02-26 23:56:00
6:56 PM,24.1,19.9,84,29.97,5.0,NNW,15.0,-,N/A,,Overcast,340,2013-02-27 00:56:00
7:56 PM,23.0,19.9,88,29.99,5.0,NNW,13.8,-,N/A,,Overcast,330,2013-02-27 01:56:00
8:56 PM,21.9,19.0,89,29.99,4.0,NNW,13.8,-,N/A,,Overcast,330,2013-02-27 02:56:00
10:56 PM,23.0,19.9,88,30.02,3.0,NNW,11.5,-,N/A,,Overcast,340,2013-02-27 04:56:00
11:22 PM,21.2,19.4,93,29.95,2.5,NNW,13.8,-,N/A,,Overcast,330,2013-02-27 05:22:00
11:56 PM,21.9,21.0,96,30.02,2.0,NNW,15.0,-,N/A,,Overcast,330,2013-02-27 05:56:00